TimeCDT,TemperatureF,Dew PointF,Humidity,Sea Level PressureIn,VisibilityMPH,Wind Direction,Wind SpeedMPH,Gust SpeedMPH,PrecipitationIn,Events,Conditions,WindDirDegrees,DateUTC
12:54 AM,39.0,32.0,76,29.99,10.0,West,5.8,-,N/A,,Clear,270,2013-03-19 05:54:00
1:54 AM,37.0,26.1,65,30.04,10.0,NW,11.5,-,N/A,,Clear,320,2013-03-19 06:54:00
2:54 AM,35.1,23.0,61,30.05,10.0,WNW,8.1,-,N/A,,Clear,300,2013-03-19 07:54:00
3:54 AM,33.1,23.0,66,30.05,10.0,WNW,4.6,-,N/A,,Clear,300,2013-03-19 08:54:00
4:54 AM,33.1,21.0,61,30.08,10.0,NW,9.2,-,N/A,,Clear,310,2013-03-19 09:54:00
5:54 AM,30.0,21.0,69,30.08,10.0,West,3.5,-,N/A,,Clear,280,2013-03-19 10:54:00
6:54 AM,28.4,19.4,69,30.09,10.0,WSW,5.8,-,N/A,,Clear,250,2013-03-19 11:54:00
7:54 AM,30.9,21.0,67,30.13,10.0,WSW,5.8,-,N/A,,Clear,240,2013-03-19 12:54:00
8:54 AM,35.1,19.9,54,30.15,10.0,West,10.4,-,N/A,,Clear,260,2013-03-19 13:54:00
9:54 AM,37.9,19.0,47,30.16,10.0,West,16.1,-,N/A,,Clear,270,2013-03-19 14:54:00
10:54 AM,39.9,19.9,45,30.20,10.0,West,18.4,-,N/A,,Clear,270,2013-03-19 15:54:00
11:54 AM,42.1,21.0,43,30.21,10.0,West,17.3,24.2,N/A,,Clear,270,2013-03-19 16:54:00
12:54 PM,44.6,19.4,37,30.20,10.0,NW,16.1,25.3,N/A,,Clear,310,2013-03-19 17:54:00
1:54 PM,46.0,19.9,35,30.20,10.0,WNW,9.2,21.9,N/A,,Clear,300,2013-03-19 18:54:00
2:54 PM,48.0,21.9,36,30.19,10.0,West,16.1,-,N/A,,Clear,280,2013-03-19 19:54:00
3:54 PM,46.9,17.1,30,30.20,10.0,WNW,10.4,-,N/A,,Clear,300,2013-03-19 20:54:00
4:54 PM,48.0,17.1,29,30.19,10.0,WNW,12.7,-,N/A,,Clear,290,2013-03-19 21:54:00
5:54 PM,46.0,16.0,30,30.21,10.0,WNW,10.4,-,N/A,,Clear,300,2013-03-19 22:54:00
6:54 PM,43.0,18.0,37,30.21,10.0,NW,5.8,-,N/A,,Partly Cloudy,320,2013-03-19 23:54:00
7:54 PM,41.0,19.9,43,30.22,10.0,West,3.5,-,N/A,,Scattered Clouds,270,2013-03-20 00:54:00
8:54 PM,39.9,21.0,47,30.21,10.0,Calm,Calm,-,N/A,,Partly Cloudy,0,2013-03-20 01:54:00
9:54 PM,39.0,23.0,53,30.21,10.0,Calm,Calm,-,N/A,,Clear,0,2013-03-20 02:54:00
10:54 PM,35.1,24.1,64,30.20,10.0,Calm,Calm,-,N/A,,Clear,0,2013-03-20 03:54:00
11:54 PM,33.1,24.1,70,30.19,10.0,Calm,Calm,-,N/A,,Clear,0,2013-03-20 04:54:00